JP3QZN-13 Weather Reports


time (UTC)temp
F
wind
direction
speed
knots
gust
knots
rain 1hr
in
rain 24hr
in
rain mn
in
humidity
%
barometer
mb
20260508090023 71 315 1.7 0.0 0.00 0.00 0.00 56 1009.4
20260508083022 73 292 0.0 0.0 0.00 0.00 0.00 52 1009.3
20260508070000 73 270 2.6 0.0 0.00 0.00 0.00 52 1008.8
20260508063030 74 292 8.7 0.0 0.00 0.00 0.00 51 1008.8
20260508063001 74 202 4.3 0.0 0.00 0.00 0.00 51 1008.8
20260508060029 76 247 8.7 0.0 0.00 0.00 0.00 52 1008.9
20260508053028 78 270 7.0 0.0 0.00 0.00 0.00 51 1009.0
20260508050027 78 247 8.7 0.0 0.00 0.00 0.00 52 1009.4
20260508043026 78 180 7.8 0.0 0.00 0.00 0.00 52 1009.5
20260508042755 78 270 3.5 0.0 0.00 0.00 0.00 52 1009.6
20260508040026 78 225 7.0 0.0 0.00 0.00 0.00 54 1009.7
20260508033025 78 202 3.5 0.0 0.00 0.00 0.00 53 1009.8
20260508030024 78 247 2.6 0.0 0.00 0.00 0.00 54 1009.8
20260508023023 79 247 0.9 0.0 0.00 0.00 0.00 54 1010.4
20260508020023 78 202 2.6 0.0 0.00 0.00 0.00 57 1010.6
20260508013022 77 225 1.7 0.0 0.00 0.00 0.00 60 1010.3
20260508010021 77 225 4.3 0.0 0.00 0.00 0.00 60 1010.5
20260508003021 77 247 6.1 0.0 0.00 0.00 0.00 63 1010.4
20260508000020 74 157 0.9 0.0 0.00 0.00 0.00 70 1010.7
20260507233019 74 247 0.0 0.0 0.00 0.00 0.00 72 1010.8
20260507230018 71 292 0.9 0.0 0.00 0.00 0.00 75 1010.9
20260507220017 69 135 0.0 0.0 0.00 0.00 0.00 76 1010.3
20260507213016 68 135 0.0 0.0 0.00 0.00 0.00 76 1010.5
20260507210016 68 67 0.0 0.0 0.00 0.00 0.00 76 1010.3
20260507200014 67 135 0.0 0.0 0.00 0.00 0.00 76 1010.5
20260507193013 68 112 0.0 0.0 0.00 0.00 0.00 76 1010.4
20260507190013 68 135 0.0 0.0 0.00 0.00 0.00 76 1010.7
20260507183012 68 90 0.0 0.0 0.00 0.00 0.00 76 1010.7
20260507180011 68 135 0.0 0.0 0.00 0.00 0.00 76 1010.9
20260507173010 68 112 0.0 0.0 0.00 0.00 0.00 75 1011.0
20260507170010 68 112 0.0 0.0 0.00 0.00 0.00 75 1011.0
20260507163009 68 0 0.0 0.0 0.00 0.00 0.00 73 1011.6
20260507160008 68 0 0.0 0.0 0.00 0.00 0.00 73 1011.9
20260507153007 69 337 0.0 0.0 0.00 0.00 0.00 72 1012.2
20260507150006 69 315 0.0 0.0 0.00 0.00 0.00 72 1012.6
20260507143005 69 22 0.0 0.0 0.00 0.00 0.00 71 1012.6
20260507140006 70 337 0.0 0.0 0.00 0.00 0.00 71 1012.6
20260507133004 70 315 0.0 0.0 0.00 0.00 0.00 71 1012.7
20260507130003 70 315 1.7 0.0 0.00 0.00 0.00 71 1013.0
20260507123002 71 337 0.9 0.0 0.00 0.00 0.00 70 1013.0
20260507120001 71 292 3.5 0.0 0.00 0.00 0.00 69 1013.0
20260507113000 72 292 0.9 0.0 0.00 0.00 0.00 69 1012.8
20260507110029 72 315 2.6 0.0 0.00 0.00 0.00 67 1012.9
20260507103028 73 292 2.6 0.0 0.00 0.00 0.00 65 1012.6
20260507093026 74 292 7.0 0.0 0.00 0.00 0.00 61 1012.2